Tracking 21045 objects as of 4-Aug-2020
HD Live streaming from Space Station
objects crossing your sky now

GORIZONT 30

Track GORIZONT 30 now!
GORIZONT 30 is classified as:


NORAD ID: 23108
Int'l Code: 1994-030A
Perigee: 35,785.8 km
Apogee: 35,796.3 km
Inclination: 14.8 °
Period: 1,436.0 minutes
Semi major axis: 42162 km
RCS: 12.5892 m2 (large)
Launch date: May 20, 1994
Source: Commonwealth of Independent States (former USSR) (CIS)
Launch site: TYURATAM MISSILE AND SPACE COMPLEX (TTMTR)
aabbcc
Your satellite tracking list
Your tracking list is empty




NASA's NSSDC Master Catalog

Two Line Element Set (TLE):
1 23108U 94030A   20216.64295991 -.00000114 +00000-0 +00000-0 0  9993
2 23108 014.8041 005.2503 0001242 355.9753 173.5533 01.00281457095981
Source of the keplerian elements: AFSPC